Location: Newark
(41.9364°N, 2.8061°E)
Time: 03:39:46
(UTC+00:00)

A-11 Canister half - Pass Details

Date: 18 February 2020
Orbit: 1517 x 1683 km, 47.2° (Epoch: 04 April)

Event Time Altitude Azimuth Distance (km) Brightness Sun altitude
Rises 19:20:45 0° 272° (W) 4,863 13.1 -22.2°
Reaches altitude 10° 19:23:59 10° 276° (W) 3,855 12.2 -22.8°
Maximum altitude 19:33:43 64° 357° (N) 1,722 9.2 -24.6°
Enters shadow 19:38:00 36° 65° (ENE) 2,286 9.4 -25.4°
